Powrót do katalogu

COSMOS 2251 DEB

AktywnyLEO
NORAD 37095·DEBRIS·🇷🇺 Russia

Wystrzelony Jun 16, 1993 z Plesetsk Cosmodrome

Loading…

Następne Przeloty (najbliższe 24 godziny)

TLE

NieaktualneSource: Space-Track

Epoka: Sep 4, 2026, 21:17 UTC

1 37095U 93036BFR 26247.88745025  .00001039  00000-0  56546-3 0  9997
2 37095  73.8413  80.6256 0192449  90.9700 271.3489 14.04444175663714

Śledź COSMOS 2251 DEB w czasie rzeczywistym z AllMySat

Download on the App Store